Flag for U.S.A. Weather past 2 weeks in Hialeah, Florida, U.S.A.

Now
69 °F

Rain. Mostly cloudy.


Feels Like: 69 °F
Forecast: 62 / 72 °F
Wind: 16 mph from Northwest

Location: Opa Locka Airport

Current Time: Mar 27, 2015 at 10:03:40 PM

Latest Report: Mar 27, 2015 at 8:53 PM


Visibility: 8 mi

Pressure: 29.96 "Hg

Humidity: 90%

Dew point: 66 °F

Location of HialeahLocation

Historic Weather in Hialeah — Graph

°F

Hialeah temperature yesterday

Maximum temperature yesterday: 87 °F (at 3:53 PM)
Minimum temperature yesterday: 70 °F (at 5:53 AM)
Average temperature yesterday: 79 °F

Past Weeks' High & Low Weather Summary

 TemperatureHumidityPressure
High91 °F (Mar 27, 2:53 PM)100% (Mar 25, 5:53 AM)30.20 "Hg (Mar 25, 5:53 AM)
Low66 °F (Mar 18, 3:53 AM)34% (Mar 23, 2:53 PM)29.82 "Hg (Mar 27, 4:53 PM)
Average77 °F72%30.05 "Hg
* Reported Mar 12 8:53 PM — Mar 27 8:53 PM, Hialeah, Weather by CustomWeather, © 2015

Note: Actual official high and low records may vary slightly from our data, if they occured in-between our weather recording intervals... More about our weather records

Advertising

Hialeah weather history for previous 24 hours

 ConditionsComfort  
Time TempWeatherWind HumidityBarometerVisibility
8:53 PM
Fri, Mar 27
69 °FRain. Mostly cloudy.16 mph90%29.96 "Hg8 mi
7:53 PM71 °FLight rain. Partly sunny.23 mph78%29.93 "Hg10 mi
6:53 PM70 °FLight rain. Cloudy.25 mph84%29.91 "Hg10 mi
5:53 PM85 °FBroken clouds.18 mph59%29.86 "Hg10 mi
4:53 PM88 °FPassing clouds.26 mph52%29.82 "Hg10 mi
3:53 PM89 °FPassing clouds.24 mph43%29.83 "Hg10 mi
2:53 PM91 °FPassing clouds.23 mph38%29.86 "Hg10 mi
1:53 PM90 °FPassing clouds.21 mph45%29.88 "Hg10 mi
12:53 PM87 °FSunny.13 mph59%29.91 "Hg10 mi
11:53 AM80 °FLight rain. Broken clouds.13 mph76%29.93 "Hg10 mi
10:53 AM83 °FBroken clouds.12 mph70%29.94 "Hg10 mi
10:02 AM82 °FBroken clouds.12 mph72%29.95 "Hg10 mi
9:53 AM81 °FBroken clouds.9 mph74%29.95 "Hg10 mi
8:53 AM80 °FSunny.10 mph79%29.95 "Hg10 mi
7:53 AM77 °FClear.10 mph82%29.94 "Hg10 mi
6:53 AM76 °FClear.9 mph82%29.93 "Hg10 mi
5:53 AM76 °FClear.8 mph80%29.92 "Hg10 mi
4:53 AM76 °FClear.7 mph82%29.92 "Hg10 mi
3:53 AM77 °FPassing clouds.12 mph85%29.93 "Hg10 mi
2:53 AM78 °FPassing clouds.9 mph84%29.94 "Hg10 mi
1:53 AM77 °FClear.8 mph88%29.96 "Hg10 mi
12:53 AM78 °FClear.10 mph82%29.96 "Hg10 mi
11:53 PM
Thu, Mar 26
78 °FPassing clouds.8 mph82%29.97 "Hg10 mi
10:53 PM78 °FPassing clouds.6 mph82%29.97 "Hg10 mi
Weather by CustomWeather, © 2015

See weather overviewHow to use our weather pages